Lid_Strength_Index
3 4 4 4 3 4 7 10 16 6 6 13 11 14 12 9 9 7 8 8 9 11 11 12 12 13 10 8 9 12 10 13 15 12 10 9 10 10 10 14 15 13 13 13
4 4 4 4 3 4 9 12 12 7 6 16 14 11 11 9 9 8 9 10 9 8 11 13 11 10 7 7 9 11 10 14 17 14 12 10 13 11 10 10 11 13 16 13
4 4 4 4 4 3 8 11 16 12 8 8 12 13 13 12 8 8 7 9 8 9 10 9 11 10 8 8 8 7 9 13 15 17 15 12 14 13 12 12 13 13 13 14
4 4 4 4 3 3 8 12 14 11 15 12 11 11 11 12 11 8 7 9 9 10 12 11 11 9 9 8 7 8 9 15 13 12 11 11 12 13 13 14 12 13 11 12
5 4 4 3 3 3 8 12 12 10 11 11 11 12 13 12 11 10 10 10 9 9 11 10 12 10 10 10 8 10 9 14 13 14 11 12 13 12 12 12 12 12 12 13
4 3 3 3 2 4 7 9 8 10 12 12 13 12 12 11 10 9 8 8 9 10 8 7 7 7 8 8 10 10 10 12 13 15 12 13 15 13 12 11 11 11 13 11
2 2 2 2 2 4 7 8 8 12 15 12 12 11 11 11 10 11 8 7 8 6 5 5 6 7 8 8 8 8 11 12 12 15 13 19 12 9 9 11 10 9 10 10
2 2 2 2 2 3 7 7 8 10 14 11 11 11 11 9 9 10 9 7 5 5 6 10 11 11 10 9 9 9 9 11 14 16 16 13 12 10 10 12 12 9 10 9
1 2 2 2 2 2 6 7 6 7 12 12 10 11 10 11 11 10 8 5 4 5 8 11 15 16 13 13 11 9 9 9 12 13 17 18 12 9 8 8 14 9 8 9
1 1 2 2 2 2 5 5 5 6 10 9 9 10 10 8 9 10 9 8 7 6 10 13 14 14 11 15 15 14 13 13 14 14 15 13 9 9 7 15 14 8 8 8
1 2 2 2 2 2 4 5 5 6 9 9 8 7 9 8 8 10 9 9 8 8 11 12 12 13 12 13 11 12 14 15 15 14 16 17 8 8 12 9 7 7 7 7
1 2 2 2 2 2 4 7 5 3 7 9 6 5 5 5 5 7 7 9 8 7 10 9 10 12 11 12 15 9 14 12 13 12 12 8 7 8 6 6 7 7 7 6
1 2 2 2 2 2 3 6 5 5 7 8 8 8 5 4 4 4 8 6 6 7 5 8 10 13 10 13 13 12 10 8 12 12 9 9 7 6 6 6 7 6 5 6
1 2 2 2 2 2 3 5 4 5 7 10 10 5 6 4 4 4 3 5 4 4 5 8 10 11 8 11 11 12 10 9 11 11 9 8 8 6 6 7 8 8 9 8
2 2 2 2 2 2 3 5 5 4 7 11 10 7 5 4 4 4 4 5 6 7 9 9 11 8 9 8 9 11 8 11 13 12 9 8 10 8 7 8 9 9 10 11
1 2 2 2 2 2 4 8 4 4 5 9 12 7 6 4 4 5 6 6 6 7 8 9 7 6 8 11 12 8 8 9 9 11 9 10 9 9 9 10 11 11 12 12
1 2 2 2 2 3 7 9 5 3 4 8 10 9 6 5 5 6 6 6 6 7 8 8 8 8 7 10 12 10 9 8 9 9 10 11 11 12 11 10 11 11 12 13
1 1 1 1 1 3 6 4 3 3 5 6 10 10 8 5 8 8 6 7 6 6 7 7 8 8 8 11 10 10 11 10 11 10 10 11 11 11 11 11 10 12 13 14
1 2 1 3 4 7 5 2 2 3 6 9 9 11 12 5 6 6 7 6 9 6 9 9 8 9 12 10 11 12 12 13 13 12 13 13 14 14 13 13 13 13 13 14
1 3 7 9 6 2 1 5 7 8 7 7 9 8 11 7 7 8 8 7 9 11 9 7 10 10 11 11 11 12 12 13 13 14 15 15 16 16 15 15 15 14 14 14
5 8 8 4 2 4 7 9 9 9 10 8 7 9 10 7 9 9 7 10 10 13 11 10 11 13 13 12 13 12 12 13 14 14 15 15 16 16 16 16 16 16 15 16
5 5 3 4 5 7 10 11 9 10 11 9 9 9 8 8 5 8 8 10 10 14 9 11 14 15 13 13 13 13 13 14 15 15 16 16 17 17 17 17 17 17 16 16
3 5 7 7 9 12 15 14 12 12 10 10 9 10 9 8 6 8 9 12 13 8 12 15 16 14 14 14 14 14 14 15 16 17 17 17 18 19 19 19 19 18 19 18
7 8 12 12 14 12 12 11 10 9 8 9 8 8 9 8 9 9 12 10 10 13 17 18 16 14 14 14 14 15 17 17 18 19 19 20 20 21 21 21 20 21 21 21
8 9 14 13 12 11 10 8 9 9 8 8 8 8 8 9 10 9 11 12 17 17 18 17 15 14 15 15 15 16 17 18 20 21 22 23 22 22 23 22 22 22 22 22
11 13 13 11 12 13 13 12 11 10 11 9 8 9 11 11 11 13 16 16 18 18 16 15 15 15 15 16 16 18 19 19 20 21 20 22 23 23 23 23 23 23 23 23
13 17 15 16 16 16 15 14 14 12 12 10 10 11 13 12 15 17 17 19 17 16 16 16 16 16 17 17 16 17 18 20 21 21 21 22 22 22 22 23 23 22 22 23